Regional Weather Roundup
Issued by NWS

Home | Current Version | Previous Version | Text Only | Print | Product List | Glossary On
Versions: 1 2 3 4 5 6 7 8 9 10 11 12 13 14 15 16 17 18 19 20 21 22 23 24 25 26 27 28 29 30 31 32 33 34 35 36 37 38 39 40 41 42 43 44 45 46 47 48 49 50
000
ASUS44 KBMX 311110
RWRAL

ALABAMA REGIONAL WEATHER ROUNDUP
NATIONAL WEATHER SERVICE BIRMINGHAM AL
500 AM CST SAT JAN 31 2015

NOTE: "FAIR" INDICATES FEW OR NO CLOUDS BELOW 12,000 FEET
WITH NO SIGNIFICANT WEATHER AND/OR OBSTRUCTIONS TO VISIBILITY.

THE REMARK "TC" DENOTES TEMPERATURE IN DEGREES CELSIUS.

ALZ001>011-014-016>018-020-311200-
NORTH ALABAMA

CITY           SKY/WX    TMP DP  RH WIND       PRES   REMARKS
MUSCLE SHOALS  CLOUDY    31  25  78 CALM      30.38S
HUNTSVILLE     MOCLDY    30  23  75 CALM      30.36R
DECATUR        CLOUDY    29  24  82 CALM      30.37S
HALEYVILLE       N/A     28  24  85 CALM      30.36F
GADSDEN        CLOUDY    27  21  80 NW3       30.37R
$$

ALZ012-013-022-023-030>036-040>044-311200-
WEST CENTRAL ALABAMA

CITY           SKY/WX    TMP DP  RH WIND       PRES   REMARKS
TUSCALOOSA     PTCLDY    30  24  78 CALM      30.37R
$$

ALZ015-024>027-033>036-040>044-311200-
CENTRAL ALABAMA

CITY           SKY/WX    TMP DP  RH WIND       PRES   REMARKS
BIRMINGHAM     PTCLDY    31  21  66 CALM      30.36S
MONTGOMERY     CLEAR     30  23  75 CALM      30.35S
SHELBY CO ARPT CLEAR     35  21  56 E3        30.34S
MAXWELL AFB    CLEAR     30  24  80 CALM      30.35R
GREENVILLE     FAIR      34  23  64 NE3       30.31F
$$

ALZ019-021-028-029-037-038-045>048-311200-
EAST CENTRAL ALABAMA

CITY           SKY/WX    TMP DP  RH WIND       PRES   REMARKS
ANNISTON       MOCLDY    30  24  78 NE3       30.34F
ALEXANDER CITY CLEAR     34  19  55 N3        30.33S
AUBURN         CLEAR     30  18  59 NE10      30.35R WCI  21
$$

ALZ051>064-311200-
SOUTHWEST ALABAMA

CITY           SKY/WX    TMP DP  RH WIND       PRES   REMARKS
MOBILE         CLEAR     36  27  69 NE7       30.31S WCI  30
BROOKLEY FIELD CLEAR     43  30  60 NE10      30.33F
EVERGREEN      CLEAR     29  27  92 CALM      30.33S
$$

ALZ049-050-065>069-311200-
SOUTHEAST ALABAMA

CITY           SKY/WX    TMP DP  RH WIND       PRES   REMARKS
DOTHAN         CLEAR     33  25  72 N6        30.36R WCI  28
OZARK          CLEAR     35  23  60 N6        30.33R WCI  30
TROY           CLEAR     29  23  78 CALM      30.34S
EUFAULA        MIX PCPN  27  23  85 CALM      30.33S
$$


USA.gov is the U.S. government's official web portal to all federal, state and local government web resources and services.